Regional Weather Roundup
Issued by NWS

Home | Current Version | Previous Version | Graphics & Text | Print | Product List | Glossary On
Versions: 1 2 3 4 5 6 7 8 9 10 11 12 13 14 15 16 17 18 19 20 21 22 23 24 25 26 27 28 29 30 31 32 33 34 35 36 37 38 39 40 41 42 43 44 45 46 47 48 49 50
000
ASUS45 KBOU 031407
RWRCO

WEATHER ROUNDUP FOR COLORADO
NATIONAL WEATHER SERVICE DENVER/BOULDER CO
800 AM MDT SUN MAY 03 2015

NOTE: "FAIR" INDICATES FEW OR NO CLOUDS BELOW 12000 FEET WITH NO
SIGNIFICANT WEATHER AND/OR OBSTRUCTIONS TO VISIBILITY.

COZ001>005-013-030-031-031500-
...NORTHWEST COLORADO...

CITY           SKY/WX    TMP DP  RH WIND       PRES   REMARKS
CRAIG          MOSUNNY   46  39  76 CALM      30.03R
HAYDEN         MOSUNNY   46  34  61 E13       30.05R
MEEKER         SUNNY     50  36  58 CALM      30.04R
MOUNT WERNER   NOT AVBL
STEAMBOAT SPGS MOSUNNY   41  34  76 CALM      30.07R
WALDEN         SUNNY     37  32  81 CALM      30.13R
$$

COZ006>008-011-031500-
...WEST CENTRAL VALLEYS...

CITY           SKY/WX    TMP DP  RH WIND       PRES   REMARKS
GRAND JUNCTION MOSUNNY   59  39  47 SE7       29.97R
MONTROSE       MOSUNNY   60  34  37 SE8       30.04R
EAGLE          SUNNY     43  36  75 CALM      30.13R
RIFLE          SUNNY     52  38  58 CALM      30.03R
DELTA          MOSUNNY   59  34  38 CALM      30.02R
NUCLA          MOSUNNY   55  32  41 CALM      30.11R
$$

COZ017>023-064>068-031500-
...SOUTHWEST COLORADO...

CITY           SKY/WX    TMP DP  RH WIND       PRES   REMARKS
DURANGO        CLOUDY    46  35  65 CALM      30.12R
CORTEZ         CLOUDY    52  37  56 CALM      30.09R
PAGOSA SPRINGS MOSUNNY   47  35  62 CALM      30.17R
TELLURIDE      CLOUDY    46  29  53 SE5       30.22S
WOLF CREEK PAS NOT AVBL
$$

COZ009-010-012-014-032>034-037-058>063-031500-
...CENTRAL COLORADO...

CITY           SKY/WX    TMP DP  RH WIND       PRES   REMARKS
ASPEN          SUNNY     40  33  76 CALM      30.12R
BUENA VISTA    NOT AVBL
COPPER MTN     MOSUNNY   37  21  52 W9G17     30.31R
BERTHOUD PASS  FAIR      32  23  69 W28G35    30.30S WCI  18
COTTONWOOD PAS MOSUNNY   46  28  49 CALM      30.22S
GUNNISON       PTSUNNY   37  30  75 CALM      30.21R
KREMMLING      SUNNY     37  32  81 CALM      30.16R
LEADVILLE      MOSUNNY   37  30  75 CALM      30.21R
MONARCH PASS   MOSUNNY   32  27  80 SW16      30.42R WCI  21
SALIDA         MOSUNNY   45  36  70 NW8       30.22R
SUNLIGHT       SUNNY     41  28  60 CALM      30.28R
WILKERSON PASS MOSUNNY   37  23  56 W6        30.31R
$$

COZ069>075-031500-
...SAN LUIS VALLEY/SANGRE DE CRISTO MOUNTAINS...

CITY           SKY/WX    TMP DP  RH WIND       PRES   REMARKS
ALAMOSA        MOSUNNY   41  36  82 CALM      30.16R
LA VETA PASS   CLOUDY    41  30  65 MISG      30.23S
SAGUACHE       MOSUNNY   45  34  65 NW16      30.17S
$$

COZ035-036-038>040-031500-
...NORTHERN COLORADO FRONT RANGE...

CITY           SKY/WX    TMP DP  RH WIND       PRES   REMARKS
DENVER INTL AP PTSUNNY   58  40  51 SW13      29.95R
DMNS CITY PARK   N/A     59  37  44 SW13      29.96S
AURORA         NOT AVBL
FRONT RANGE AP PTSUNNY   61  48  63 SW10      29.96R
ERIE MUNI ARPT PTSUNNY   58  42  56 SW3       29.94R
BOULDER MUN AP PTSUNNY   63  37  39 CALM      29.94R
CENTENNIAL     PTSUNNY   61  38  42 S6        29.98R
BROOMFIELD     PTSUNNY   57  41  54 CALM      29.97R
FORT COLLINS   MOSUNNY   55  45  67 CALM      29.95R
LONGMONT       MOSUNNY   65  44  46 W3        29.95R
$$

COZ041-046-047-076>085-087-088-031500-
...PIKES PEAK/PALMER DIVIDE AND SOUTHERN FOOTHILLS...

CITY           SKY/WX    TMP DP  RH WIND       PRES   REMARKS
COLO. SPRINGS  PTSUNNY   60  37  42 NW7       30.00S
A. F. ACADEMY  PTSUNNY   61  31  32 NE7       30.02R
ELLICOTT       PTSUNNY  N/A N/A N/A N9        29.99R
FALCON         PTSUNNY   59  31  34 NW9       30.04S
FORT CARSON    NOT AVBL
LIMON          SUNNY     59  41  51 W13       29.96R
MONUMENT HILL  MOSUNNY   59  34  38 W8        30.04R
TRINIDAD       MOSUNNY   55  37  50 W7        30.01R
$$

COZ042>045-048>051-090-091-031500-
...NORTHEAST COLORADO...

CITY           SKY/WX    TMP DP  RH WIND       PRES   REMARKS
GREELEY ARPT   MOSUNNY   54  41  62 CALM      29.95R
AKRON          SUNNY     59  43  55 W16       29.92R
BURLINGTON     MOSUNNY   61  45  55 W6        29.90R
WRAY           SUNNY     60  47  64 W6        29.86R
STERLING       SUNNY     54  48  82 S7        29.89R
HOLYOKE        NOT AVBL
FORT MORGAN    SUNNY     58 -22   3 NW7       29.92R
$$

COZ086-089-092>099-031500-
...SOUTHEAST COLORADO...

CITY           SKY/WX    TMP DP  RH WIND       PRES   REMARKS
PUEBLO         MOSUNNY   58  41  53 W7        29.93S
LA JUNTA       MOSUNNY   57  43  59 MISG      29.92R
LAMAR          MOSUNNY   60  48  64 W9        29.88R
SPRINGFIELD      N/A     66  41  40 W9        29.92R
$$


USA.gov is the U.S. government's official web portal to all federal, state and local government web resources and services.